Location: Madden
(51.3728°N, 114.3297°W)
Time: 17:36:55
(UTC+00:00)

Tiangong - Visible Passes

Search period start: 10 June 2023 00:00
Search period end: 20 June 2023 00:00
Orbit: 386 x 390 km, 41.5° (Epoch: 10 June)

Date Brightness Start Highest point End Pass type
(mag) Time Alt. Az. Time Alt. Az. Time Alt. Az.
10 Jun -0.1 09:29:16 14° SSE 09:29:16 14° SSE 09:30:31 10° SE visible
11 Jun -0.1 10:05:52 12° SSW 10:06:22 12° S 10:07:47 10° SSE visible
17 Jun 0.1 05:49:23 10° SSW 05:49:56 12° SSW 05:49:56 12° SSW visible
18 Jun -0.1 04:51:00 10° SSW 04:52:27 13° S 04:53:54 10° SE visible
19 Jun -0.2 05:28:02 10° SW 05:29:50 14° S 05:30:13 14° S visible
